Location: Unspecified
(35.6961°N, 0.0000°E)
Time: 20:53:32
(UTC+00:00)

Courier 1B Rocket - Pass Details

Date: 22 May 2019
Orbit: 920 x 1202 km, 28.2° (Epoch: 16 June)

Event Time Altitude Azimuth Distance (km) Brightness Sun altitude
Rises 22:02:43 0° 266° (W) 4,023 8.5 -27.7°
Reaches altitude 10° 22:06:24 10° 251° (WSW) 3,017 7.6 -28.1°
Enters shadow 22:09:40 18° 226° (SW) 2,401 6.9 -28.4°
